RH
65 56 72 53 64 57 55 60 59 52 60 68 70 66 53 53 67 68 72 71 66 60 52 51 57 60 64 71 79 80 86 79 82 85 90 90 94 89 86 82 79 80 82 87
63 67 52 50 58 55 56 60 59 52 58 62 65 61 47 60 62 57 64 74 68 59 53 52 61 62 69 78 82 82 83 80 85 87 89 92 92 92 92 88 85 82 87 89
62 55 55 52 56 56 66 66 70 56 58 64 72 65 50 61 72 73 71 69 66 61 60 54 59 65 74 81 85 81 86 88 87 87 90 90 89 93 96 93 91 89 85 87
61 56 54 54 53 47 53 60 63 62 60 66 64 75 69 67 72 76 73 68 64 60 55 58 63 65 76 81 84 86 87 87 86 89 92 95 97 97 93 92 92 90 92 94
58 61 60 56 50 46 49 59 59 67 72 79 77 84 71 72 63 71 76 70 70 61 57 59 65 64 75 81 86 91 87 87 89 91 91 95 96 95 95 96 94 96 96 91
59 56 54 52 59 55 54 64 68 77 76 84 82 85 76 73 60 59 78 73 72 63 60 61 66 68 78 84 87 93 90 90 90 90 91 94 96 97 97 98 97 98 98 99
70 62 59 53 58 58 62 57 80 76 87 72 90 89 75 53 61 56 53 76 76 64 64 62 63 70 81 86 89 89 93 92 90 91 92 94 95 96 98 98 97 97 98 98
71 70 60 53 55 58 63 53 71 61 68 60 78 80 53 52 59 65 64 76 70 64 61 61 63 72 84 85 89 92 94 91 90 91 92 92 92 95 96 97 97 98 98 98
66 65 62 58 55 54 60 67 59 69 91 82 54 44 37 50 69 75 74 68 66 62 62 59 63 72 84 86 88 92 90 88 89 88 88 91 91 92 95 95 95 97 96 96
54 74 65 61 57 62 62 51 60 77 60 59 44 46 39 44 60 61 71 68 63 60 60 58 62 71 84 86 86 88 81 85 85 84 87 89 86 84 86 86 92 93 94 94
48 60 76 65 68 66 70 67 69 57 62 54 54 42 36 35 45 58 63 64 61 58 58 57 60 69 84 86 85 86 83 77 74 76 82 85 86 81 79 80 80 80 79 82
52 71 88 70 65 65 66 62 62 60 62 70 60 50 36 36 46 50 54 60 61 56 56 57 59 71 86 86 85 85 78 75 73 72 74 75 79 77 79 80 77 74 74 74
58 82 85 74 64 61 72 64 62 60 63 70 69 45 39 49 51 52 54 64 63 57 56 58 63 72 86 88 88 85 79 75 72 68 72 74 76 72 75 76 78 78 78 78
55 71 65 76 61 67 75 74 63 53 79 60 59 44 36 37 40 48 55 59 69 60 51 56 63 68 80 88 88 87 84 78 71 70 71 74 77 76 82 80 81 81 78 76
61 78 77 71 65 63 66 69 72 59 48 54 46 41 28 31 35 33 42 56 65 58 51 51 54 62 75 89 89 87 87 87 83 82 82 86 86 86 86 86 88 87 84 87
74 91 84 83 73 70 79 64 74 65 53 53 49 49 33 38 39 42 39 49 60 55 48 46 49 54 64 77 85 87 89 89 88 86 86 84 83 84 87 87 87 86 88 89
85 88 92 97 77 83 88 75 62 58 69 52 63 41 44 47 42 42 41 43 47 51 47 44 45 46 50 65 76 84 87 91 90 88 88 85 83 83 85 86 85 86 87 88
95 93 98 98 91 96 73 68 60 59 50 47 46 39 40 46 48 51 48 44 46 44 46 42 41 41 45 58 77 82 89 90 90 89 88 86 83 83 84 83 84 88 88 88
87 98 98 97 98 79 66 72 65 66 58 52 48 44 42 49 53 45 43 47 40 43 44 41 41 40 41 57 67 78 89 90 91 88 86 84 78 80 82 84 85 86 88 89
95 89 98 97 96 96 68 63 60 55 67 50 48 47 52 54 56 45 45 48 52 52 53 47 45 43 45 54 70 75 83 87 87 86 84 84 82 76 77 80 85 87 86 85
99 99 98 97 96 85 66 45 54 67 58 42 53 52 56 53 47 43 51 48 49 55 58 52 48 45 43 57 68 74 77 81 77 81 87 88 82 78 75 80 89 87 90 91
95 97 98 98 96 89 68 49 50 49 45 37 40 43 52 50 47 48 49 49 48 55 64 60 51 51 50 63 66 68 74 71 79 83 84 86 87 78 77 84 90 88 90 90
96 78 84 78 75 65 66 60 48 54 40 34 36 39 40 42 38 41 46 48 50 58 70 71 59 66 61 67 63 62 63 77 82 83 83 85 89 88 87 82 88 92 91 87
89 78 82 74 66 72 67 60 56 48 46 44 37 36 38 39 43 49 56 59 61 65 72 74 69 70 68 69 64 56 63 77 81 81 82 86 85 87 89 87 84 83 89 88
84 77 84 84 76 76 68 66 56 59 58 58 56 52 51 56 60 62 63 63 60 64 74 78 74 71 69 74 68 66 78 79 80 80 80 84 82 85 85 80 80 79 77 75
85 86 77 76 65 61 55 53 62 64 64 63 70 71 70 65 65 67 66 66 63 65 86 89 82 79 77 78 74 82 83 80 78 80 80 79 80 87 81 79 84 78 75 78
Wind_Speed
2 3 6 9 7 1 2 3 4 4 0 3 7 16 20 10 9 13 10 8 8 8 5 4 0 4 6 6 8 9 8 11 9 8 8 7 7 8 6 6 7 6 6 5
4 7 4 3 4 4 3 1 5 5 2 1 6 22 19 5 7 11 11 9 9 5 6 4 1 4 6 6 7 9 9 12 10 7 8 5 7 7 6 4 5 5 5 5
6 2 5 4 3 4 2 4 3 4 6 1 8 10 5 2 3 2 4 5 6 9 8 4 1 4 6 7 8 10 9 11 10 11 9 7 8 5 3 3 3 4 6 5
5 2 5 3 4 5 3 3 3 2 5 4 5 8 8 4 7 2 4 6 7 7 5 3 0 3 5 6 7 8 9 10 10 11 10 11 7 8 4 3 1 2 4 4
5 6 4 3 4 5 4 3 2 3 2 3 4 4 11 4 5 3 5 6 7 7 6 5 1 3 4 6 7 7 8 9 11 11 11 9 9 8 7 4 2 2 4 5
2 0 4 4 3 1 6 5 5 4 2 2 3 5 9 3 4 1 2 7 8 7 6 5 1 3 4 6 7 7 9 9 10 11 12 11 12 12 7 7 6 7 6 3
1 3 1 4 5 4 2 5 3 5 3 6 3 2 14 5 5 4 4 9 8 7 6 4 2 2 4 6 8 6 8 10 10 11 12 11 11 12 10 7 6 7 6 6
7 4 8 5 4 6 5 5 6 6 2 4 3 8 8 5 3 6 2 5 7 7 5 5 4 1 3 5 7 7 7 9 10 10 11 10 11 8 7 7 7 6 6 7
6 2 2 2 2 3 5 4 2 6 2 3 4 9 8 4 2 1 4 5 8 8 7 7 5 2 2 3 5 6 6 8 8 9 8 10 10 12 11 10 7 5 8 7
5 4 1 2 3 3 3 4 3 3 3 4 5 6 8 3 7 6 6 9 8 7 8 7 5 3 2 3 2 5 5 6 6 8 8 8 9 10 11 11 12 13 11 10
4 5 0 2 7 8 4 3 1 2 4 5 2 8 7 6 6 10 9 10 9 9 8 8 7 4 3 3 1 3 5 6 7 8 7 9 9 9 12 11 10 10 11 10
5 5 4 5 0 2 3 6 6 5 5 3 1 10 3 5 4 6 8 9 8 7 8 7 7 6 5 4 2 2 3 6 5 5 7 8 8 8 11 11 12 12 12 11
10 2 3 3 2 3 5 6 4 3 3 7 7 8 2 4 6 5 8 9 8 9 8 7 6 7 7 6 5 4 2 5 4 5 6 7 8 8 10 10 10 10 12 12
6 4 7 9 4 6 6 6 7 6 4 4 9 9 7 5 7 5 6 6 9 9 11 10 7 8 7 7 6 6 4 4 5 5 7 7 7 6 6 7 8 9 9 13
4 6 5 4 4 4 4 5 10 13 15 10 6 16 21 12 9 9 8 6 8 10 11 13 12 10 8 7 6 6 5 5 6 6 6 6 5 5 5 7 7 6 8 7
3 3 4 3 3 6 5 8 10 17 15 14 13 29 13 8 4 5 8 9 10 12 14 14 13 11 11 11 10 7 6 7 5 7 7 7 6 5 5 5 6 8 8 7
7 7 4 4 3 2 10 16 21 11 9 15 14 31 3 4 8 10 8 10 12 13 16 16 18 17 15 14 13 12 9 7 7 6 7 7 8 7 4 4 5 5 6 6
6 6 2 3 1 7 2 3 8 19 18 18 15 24 14 8 5 6 10 11 12 14 14 16 15 14 14 11 12 9 7 8 8 8 7 8 9 8 7 5 4 4 4 5
9 6 4 5 4 9 7 6 10 11 10 22 24 27 20 5 6 14 10 12 16 13 14 16 18 18 15 15 15 13 11 8 7 9 10 9 10 11 9 9 6 3 4 3
7 7 5 3 6 11 5 1 3 5 9 11 18 17 7 5 0 5 4 4 7 7 7 11 14 13 14 14 15 15 14 13 13 10 10 10 8 11 11 10 10 6 4 3
6 5 12 5 5 10 8 5 5 7 8 5 9 8 8 6 7 4 8 6 4 4 7 7 11 15 17 15 17 18 16 17 15 10 8 7 8 9 8 9 5 8 7 8
12 10 6 4 6 15 6 6 10 8 2 6 6 7 7 6 7 6 8 8 7 7 4 7 11 13 11 14 16 17 19 17 13 11 11 10 7 6 7 8 5 7 9 9
8 8 9 13 10 3 7 3 7 1 4 4 6 5 5 5 6 7 6 6 6 6 4 4 7 8 10 15 17 18 17 13 13 13 12 11 8 6 6 9 9 7 7 7
3 2 4 4 8 9 9 6 6 4 5 2 4 6 6 6 7 9 8 8 6 4 4 4 6 7 10 12 15 16 12 15 15 15 14 10 12 10 7 5 6 7 8 7
5 10 8 5 7 4 5 9 9 3 5 5 5 6 8 4 9 6 7 7 7 6 3 5 7 8 9 9 13 11 10 14 15 14 13 12 10 11 10 9 10 10 9 10
5 7 8 11 5 4 5 7 2 6 9 8 6 3 3 6 8 3 7 6 6 6 3 4 7 7 8 9 10 8 11 15 15 13 11 11 10 9 9 9 6 13 10 14
Wind_Direction
50 83 215 217 204 175 153 220 254 271 162 260 243 277 275 252 225 230 222 217 218 220 198 165 234 327 328 335 325 325 319 323 327 327 325 319 301 291 270 255 250 245 240 199
50 234 210 202 182 218 228 217 270 280 300 253 322 287 286 259 240 233 217 209 204 175 185 192 342 343 326 313 319 322 335 329 327 325 315 294 296 282 269 260 257 257 254 193
173 216 133 140 155 171 227 192 228 243 317 240 313 292 334 294 296 287 200 176 155 183 190 187 316 326 314 338 333 326 328 321 325 331 321 316 304 292 257 244 239 231 240 188
233 238 161 165 199 152 247 184 150 56 31 272 10 281 304 300 305 274 168 152 159 160 160 155 263 323 317 329 325 330 326 330 338 337 337 327 326 328 319 282 156 213 194 210
236 166 160 170 204 173 227 124 93 83 73 338 354 69 270 347 322 248 190 179 176 182 172 162 205 311 315 343 325 329 328 341 351 347 347 335 347 333 330 19 112 158 170 180
250 229 169 191 71 55 144 77 43 51 59 350 243 115 285 240 217 301 189 192 183 184 169 152 202 328 327 347 337 342 341 356 357 0 355 352 2 345 1 35 52 38 36 96
112 208 182 141 95 23 90 88 334 347 10 226 147 89 246 259 239 221 208 204 184 176 170 173 212 332 339 360 341 349 348 6 3 11 3 358 7 355 2 36 51 65 52 51
164 253 176 179 175 174 181 170 165 207 212 283 89 237 252 200 268 236 254 180 153 167 182 185 209 262 319 358 353 352 359 11 10 14 11 359 20 12 6 25 60 52 71 72
155 217 100 80 122 135 186 200 167 105 39 40 232 282 294 227 228 115 147 159 179 181 186 195 193 220 293 347 7 355 6 18 18 16 18 13 16 29 14 13 47 62 73 72
204 104 328 143 127 65 155 166 86 349 135 258 280 274 246 264 218 216 196 206 200 191 182 193 192 203 246 282 15 11 12 31 13 35 30 27 22 40 39 29 32 45 43 60
153 120 293 150 203 172 141 209 129 132 160 178 280 265 210 221 197 208 213 210 200 192 193 189 190 193 196 268 49 31 22 39 29 42 41 44 39 43 60 49 42 53 68 64
171 117 163 215 123 139 169 195 172 142 217 244 209 274 176 215 218 210 225 207 197 189 190 193 186 178 178 239 189 72 50 66 29 47 56 52 50 58 67 65 53 45 50 57
176 228 83 18 10 355 202 194 174 115 89 207 149 259 5 287 290 258 231 203 188 185 175 192 193 187 184 207 225 156 122 86 54 42 59 55 44 53 63 70 71 73 74 53
106 147 166 188 170 132 186 188 180 159 149 185 230 304 270 271 254 258 249 209 187 192 184 185 198 199 185 191 219 182 164 119 91 73 69 60 47 49 61 76 73 71 83 96
148 185 158 202 139 151 181 170 186 204 213 195 230 225 251 241 233 232 216 185 186 197 195 195 194 201 180 191 206 215 172 147 129 109 94 88 60 54 51 66 59 65 69 69
172 177 107 315 196 216 235 205 197 223 237 254 270 277 258 243 249 261 224 198 207 208 206 199 194 195 189 190 192 212 188 164 156 139 131 125 96 69 51 68 75 85 76 72
150 134 119 231 47 45 285 205 208 203 204 210 221 242 274 227 233 245 257 210 214 214 204 199 197 197 194 189 184 195 193 161 160 156 147 143 129 115 90 71 83 84 92 101
138 118 124 146 123 233 240 153 210 213 236 212 249 260 243 259 266 277 238 232 216 220 202 205 200 196 198 179 179 169 170 177 171 165 169 159 145 140 134 112 104 93 90 99
163 135 157 175 207 314 277 195 170 168 259 211 224 248 262 299 334 292 262 234 244 224 202 201 198 197 183 177 173 172 169 181 171 186 177 182 163 154 152 145 151 122 119 104
158 160 188 143 179 209 247 126 156 135 279 198 205 235 247 111 191 264 346 334 284 248 201 190 192 188 180 178 166 172 181 181 194 190 192 178 179 165 165 160 157 148 138 118
167 171 197 169 220 281 241 151 163 123 244 162 168 192 154 181 211 268 308 300 283 265 231 179 168 183 190 173 169 180 184 193 195 180 166 177 184 175 175 159 156 151 149 141
174 167 176 146 200 256 146 67 179 205 71 146 143 165 171 218 281 292 299 302 311 314 283 189 181 187 178 172 177 184 193 192 173 168 172 181 182 187 165 160 155 161 157 159
205 194 176 189 207 210 208 295 219 129 158 178 145 178 180 224 248 270 267 301 302 302 280 216 195 177 172 175 185 188 198 173 170 167 183 179 171 173 170 172 165 159 171 180
249 150 181 106 243 220 235 259 229 213 225 178 163 171 194 247 264 267 288 292 286 276 253 195 177 191 194 185 192 206 180 170 172 181 182 180 180 178 174 173 178 177 185 189
184 148 173 271 273 331 237 231 239 210 209 234 233 218 237 240 272 247 270 277 271 263 228 192 200 201 208 190 198 190 166 169 180 184 183 180 189 188 184 200 192 194 202 195
225 171 180 219 198 195 226 230 174 197 239 245 208 243 231 198 247 264 279 264 273 269 227 210 210 205 202 187 198 177 170 176 179 187 185 186 183 183 192 194 208 225 214 205